RH
45 60 99 97 88 82 94 96 72 70 38 83 26 26 20 25 42 57 57 27 33 68 47 97 65 56 52 36 65 86 95 68 90 89 90 78 89 86 94 96 96 96 99 96
59 83 93 92 91 87 80 83 97 68 19 99 26 16 17 13 15 21 54 58 55 32 97 58 78 57 37 28 85 80 81 93 95 98 94 92 98 81 94 95 96 96 82 72
98 97 94 76 63 64 87 84 83 88 41 60 90 28 17 18 25 20 24 28 78 93 40 52 65 66 59 27 89 87 80 86 84 89 92 94 92 86 94 96 96 82 74 71
99 95 98 91 99 99 88 96 88 73 41 65 95 54 14 17 36 25 36 72 40 96 64 48 49 52 65 43 82 57 78 79 84 85 96 97 97 95 93 90 85 79 72 71
97 78 89 95 95 93 65 70 72 95 32 83 70 82 12 10 18 25 99 70 33 18 29 42 49 98 53 28 33 30 44 70 49 64 89 95 93 94 95 85 81 77 79 81
97 88 95 87 96 59 59 60 53 91 82 97 78 97 10 13 13 19 40 64 95 79 12 65 59 56 57 53 52 50 49 60 80 78 75 76 71 84 87 89 80 74 62 49
88 96 95 93 92 64 45 55 77 98 84 60 31 44 25 22 19 32 51 71 26 13 13 13 12 14 17 25 28 33 32 32 28 26 23 26 38 59 58 30 41 60 60 60
80 83 88 81 76 99 52 94 96 97 75 37 59 68 14 12 38 32 11 67 99 29 11 12 12 13 13 12 12 13 13 14 15 15 15 15 15 19 26 31 47 54 65 45
72 76 94 82 79 98 92 49 56 87 78 98 95 100 30 9 25 24 24 25 57 100 14 16 15 15 16 17 22 29 38 48 54 54 50 48 52 54 52 63 53 45 59 43
78 82 79 87 61 68 97 97 69 91 98 92 99 58 12 8 9 12 17 18 36 31 15 16 20 24 25 23 21 22 23 24 21 18 20 19 24 28 28 32 53 76 67 42
79 89 90 94 89 87 56 60 94 77 90 91 80 80 33 12 8 8 10 12 19 11 10 16 15 13 9 8 6 6 6 6 7 7 7 7 6 10 51 49 17 21 17 5
61 86 96 81 94 68 89 82 88 59 85 72 63 90 40 8 6 6 7 10 7 6 8 10 6 5 5 5 5 6 6 7 7 8 8 15 15 51 24 13 6 4 4 4
51 78 91 75 89 86 65 83 85 86 97 88 80 93 37 8 5 4 6 5 5 4 5 5 6 5 5 5 6 6 7 7 8 8 8 8 16 8 5 10 8 5 3 4
46 56 73 66 75 82 80 87 88 94 81 98 84 83 29 7 5 4 5 5 5 5 4 4 5 4 5 5 6 6 7 7 8 8 9 9 8 5 5 7 9 8 7 5
32 49 58 69 84 83 90 82 83 81 80 96 96 68 46 14 6 5 5 5 5 5 5 5 4 5 5 5 6 6 6 7 12 8 8 7 5 4 3 4 4 5 6 10
30 27 54 62 81 89 74 84 90 79 96 93 78 89 81 30 6 5 5 5 6 7 5 4 4 4 4 5 5 6 7 7 7 7 6 4 3 4 4 5 7 7 10 13
23 24 37 60 76 81 66 64 82 70 82 91 93 89 84 32 6 5 5 6 6 7 8 5 5 5 6 6 6 7 7 6 6 4 4 4 4 4 5 5 5 7 11 16
17 18 24 52 79 70 55 90 75 73 83 67 64 71 34 60 11 6 6 6 6 8 8 7 7 6 7 7 7 6 6 4 4 3 4 4 4 4 4 5 8 16 16 17
22 23 24 45 68 68 81 66 87 76 80 79 69 72 78 79 29 6 6 11 8 8 8 7 7 6 6 6 5 5 4 3 3 3 3 3 3 4 4 9 14 14 21 18
21 61 42 40 50 74 58 76 63 82 87 72 74 88 92 87 31 7 7 12 5 8 7 7 6 5 5 5 4 3 3 3 3 3 3 3 4 4 5 15 16 23 23 20
10 26 57 54 43 46 51 76 84 88 74 79 72 86 92 82 46 22 15 8 4 5 5 6 5 5 5 4 3 3 3 3 3 3 4 5 8 10 18 19 23 28 23 20
11 10 8 26 68 64 61 80 64 63 82 77 88 58 70 84 79 64 26 19 7 6 6 6 6 5 4 3 3 3 3 4 4 4 9 17 21 23 21 25 27 22 21 21
22 10 8 8 10 43 60 73 70 72 81 86 86 89 78 99 66 61 26 28 24 14 9 5 6 6 5 5 4 4 4 5 7 13 17 23 20 25 30 29 24 25 24 23
15 11 10 13 13 23 35 59 70 88 86 84 69 88 85 85 78 55 33 50 42 27 27 21 7 6 5 5 5 6 7 15 14 17 24 20 17 30 36 34 31 26 22 20
67 33 10 8 13 29 29 47 75 92 63 82 81 65 73 91 76 43 57 57 55 55 35 35 29 14 7 7 7 10 15 18 19 23 23 18 17 32 33 30 27 23 17 13
79 82 35 7 7 11 10 30 62 84 89 98 90 83 91 93 44 30 50 58 58 59 63 60 46 24 13 9 8 11 19 25 26 26 21 18 22 25 25 26 28 24 19 14
Wind_Speed
9 6 12 19 16 8 4 12 12 6 8 6 1 4 4 11 9 8 5 7 6 7 0 9 10 8 5 5 8 5 5 4 8 8 7 9 6 4 6 9 20 22 19 14
10 5 15 15 10 12 8 10 15 10 7 15 1 7 3 5 12 6 8 6 9 8 1 5 5 5 4 4 10 12 15 12 10 8 11 8 9 5 4 13 26 20 15 12
9 11 13 5 6 4 3 2 7 9 4 6 11 5 7 7 9 9 12 12 9 7 6 7 4 5 3 4 6 11 11 13 14 13 10 6 6 10 8 13 26 20 15 11
11 13 3 5 7 8 18 20 12 9 8 6 17 3 9 7 8 9 14 8 8 8 9 9 6 7 5 8 10 10 11 12 13 12 12 15 17 18 20 18 17 14 12 7
9 14 16 12 11 21 23 9 11 4 4 11 17 13 8 6 9 12 14 6 4 15 11 10 12 15 12 10 9 9 9 10 12 14 17 19 19 17 19 14 11 10 8 8
17 20 9 9 12 17 9 9 11 20 16 18 13 8 10 8 11 14 14 11 11 7 12 9 15 13 12 13 12 12 13 12 14 14 14 13 13 10 11 10 7 4 1 6
21 16 17 21 18 14 10 6 11 8 15 11 13 10 8 10 10 13 12 10 15 10 14 15 15 14 15 14 14 14 15 15 14 13 14 13 12 10 10 8 7 7 6 9
21 26 21 23 11 8 13 28 28 17 24 10 13 13 13 10 8 6 10 15 6 12 14 16 13 14 13 13 14 13 13 13 13 12 11 10 9 8 7 6 6 6 3 4
20 21 17 21 17 10 23 21 23 5 22 14 18 23 3 7 9 1 3 10 13 8 8 9 10 11 12 14 14 14 14 13 13 12 11 9 8 7 6 6 7 7 6 8
27 21 18 21 18 20 24 9 20 8 4 8 18 10 6 6 4 1 5 4 10 8 7 8 10 12 12 13 13 13 13 13 11 11 11 10 9 8 7 6 6 8 9 9
32 27 30 29 21 19 18 10 6 16 0 16 16 12 2 2 4 2 3 4 7 7 7 8 12 12 12 13 15 15 16 15 15 15 15 13 11 9 9 9 8 8 8 9
39 27 24 23 17 20 21 11 12 8 5 12 35 19 9 3 4 5 6 6 8 6 8 7 8 12 13 14 14 14 14 13 13 13 14 14 13 10 11 9 9 9 10 10
36 33 28 32 29 26 24 22 18 22 12 18 11 11 8 8 7 7 7 4 6 5 6 7 5 9 10 10 9 9 8 9 9 10 11 13 12 10 10 11 10 9 8 10
39 34 32 28 29 23 21 17 19 27 29 10 17 11 8 10 8 9 7 6 5 5 6 7 8 6 5 5 4 4 5 7 9 10 11 12 13 10 9 9 10 10 12 14
46 45 35 31 30 30 30 25 22 21 17 15 26 11 12 8 10 10 7 5 5 4 6 8 7 7 5 3 1 3 4 6 8 11 13 12 10 9 10 10 10 12 14 17
48 54 40 36 29 35 39 33 27 21 20 16 33 24 13 10 14 11 9 7 6 5 8 11 8 7 5 3 2 3 4 7 9 10 10 8 7 8 9 10 13 16 18 21
50 53 46 40 33 43 45 35 24 17 24 20 14 27 20 17 14 11 11 10 9 8 8 10 12 9 6 5 4 4 5 7 7 7 6 7 7 9 11 13 15 17 18 19
45 53 50 42 35 42 32 34 32 29 23 26 14 16 21 8 12 13 12 10 10 8 8 12 12 10 8 6 4 5 6 5 5 5 5 6 8 9 11 14 15 16 17 16
45 41 50 41 44 34 23 28 35 39 20 11 19 17 20 20 15 17 13 8 8 10 10 12 12 11 9 6 5 4 4 4 4 4 5 7 8 9 10 11 13 17 19 16
52 39 41 42 44 38 28 17 26 17 15 14 28 14 31 21 19 17 12 7 8 11 10 11 12 11 8 7 5 3 2 4 4 5 6 8 10 12 12 14 18 20 18 17
57 56 46 40 44 48 34 24 20 24 25 21 24 25 29 20 13 13 13 9 9 11 11 10 13 11 9 7 5 4 3 5 6 7 8 11 12 15 17 21 25 19 19 21
55 57 58 56 39 40 35 28 33 26 20 33 19 26 28 24 23 23 16 12 9 9 10 10 12 13 11 9 6 5 5 7 8 10 13 17 18 20 23 23 17 17 19 22
59 59 59 59 57 46 41 33 32 28 25 21 29 22 27 28 26 27 16 15 13 10 6 9 11 13 15 12 9 7 8 9 9 13 16 17 20 21 21 16 18 20 24 25
57 57 59 58 55 54 53 46 42 28 31 24 26 32 30 34 29 31 19 18 17 11 6 5 8 12 14 14 13 10 10 9 9 14 16 17 21 20 18 19 23 25 26 27
33 49 57 58 57 49 53 55 46 29 42 31 36 41 46 35 39 35 25 26 19 14 12 8 9 12 15 15 16 14 13 10 10 13 15 16 18 17 18 21 23 25 27 30
32 27 49 58 59 57 55 55 50 34 26 27 35 39 21 31 46 41 33 27 19 15 14 13 15 15 16 16 17 18 16 12 13 14 15 17 17 20 24 25 25 27 29 32
Wind_Direction
181 189 201 255 273 80 76 123 77 335 342 72 130 71 100 111 101 124 143 63 39 42 306 133 346 356 357 19 36 71 38 22 60 90 125 147 123 166 119 148 167 167 171 174
156 340 284 253 330 22 4 72 111 276 20 189 293 81 69 137 120 115 112 100 86 53 125 23 20 8 28 34 87 79 43 68 82 88 101 151 166 155 121 169 159 155 147 158
158 227 263 248 12 118 317 291 225 275 312 110 110 22 39 67 88 83 81 65 18 180 93 60 62 51 57 74 78 81 76 88 84 87 82 123 170 168 156 135 183 136 144 145
222 219 235 276 209 258 220 187 221 280 294 166 143 7 58 41 99 73 70 81 51 77 56 54 67 84 94 108 103 94 93 79 76 70 58 106 101 106 106 98 105 126 123 128
206 250 241 212 227 237 238 183 190 216 219 196 157 173 70 59 95 117 161 124 100 80 88 87 74 82 98 110 101 90 81 78 70 60 54 82 99 95 98 100 114 112 146 181
186 230 238 226 243 258 270 207 182 209 233 228 88 162 92 87 106 108 99 122 179 52 71 47 81 84 100 101 99 95 94 84 78 78 83 79 77 87 82 94 97 95 5 336
204 227 217 226 218 251 213 185 216 224 243 240 147 143 115 67 81 101 119 145 111 114 96 87 87 93 91 94 96 93 92 92 90 84 82 82 85 79 72 92 85 69 19 351
204 219 212 235 180 257 257 244 247 225 182 103 150 118 77 94 92 102 119 121 153 97 90 103 96 94 95 92 86 82 75 70 66 67 64 64 63 64 65 58 41 16 24 106
209 227 231 240 197 221 239 238 258 171 135 177 98 114 138 91 122 101 144 111 113 133 98 93 92 88 87 87 84 79 76 73 69 68 65 64 57 46 36 25 16 9 360 342
185 218 235 240 225 197 279 319 202 197 249 156 159 203 93 104 102 109 118 115 135 148 130 123 113 105 97 91 88 87 84 82 77 67 59 53 49 43 31 19 7 4 350 335
173 216 194 225 219 213 240 221 279 188 44 192 156 196 107 180 140 186 161 173 133 131 124 129 121 123 113 103 94 88 83 77 72 64 55 47 39 30 25 21 8 356 351 346
184 222 245 194 224 237 213 236 248 184 241 152 180 173 196 181 193 196 192 179 147 152 138 130 127 114 111 105 96 87 78 70 61 53 42 31 21 23 18 360 353 350 347 343
209 214 221 214 185 233 214 223 204 236 250 182 190 190 160 176 209 196 216 173 152 151 147 137 144 134 125 111 98 86 71 56 45 38 33 19 14 19 14 15 11 6 0 348
203 217 224 229 196 205 234 226 235 234 216 192 185 190 192 179 205 218 216 179 170 171 174 173 177 165 150 129 104 65 34 19 20 15 13 4 0 4 11 12 13 8 359 348
199 210 210 235 204 196 213 222 234 248 187 184 152 237 261 216 208 220 214 215 190 202 209 209 197 199 199 208 342 356 354 1 5 2 356 351 358 5 9 4 359 351 347 345
204 207 205 212 225 239 205 205 192 238 249 186 153 174 212 210 209 211 205 213 225 217 235 229 216 210 219 241 272 311 335 351 348 346 346 353 2 7 5 2 357 352 349 348
207 211 204 211 218 246 215 190 188 206 234 263 208 175 184 211 209 192 198 208 229 228 243 244 235 229 228 243 268 301 320 324 332 346 354 357 359 356 354 351 348 348 345 345
213 213 212 210 225 230 207 195 184 190 215 245 265 187 181 189 231 199 211 231 236 228 255 248 237 231 237 250 269 290 306 317 340 353 348 347 346 345 342 345 346 346 342 347
202 219 219 214 208 226 209 188 188 189 186 216 235 233 179 191 221 215 220 225 231 218 237 248 236 231 236 243 256 281 306 326 337 333 332 334 333 329 334 334 339 347 350 350
197 199 218 219 212 214 196 227 174 204 194 180 237 228 171 206 210 210 213 215 219 210 225 242 234 231 228 233 240 254 279 307 312 311 321 324 315 312 317 333 342 347 355 353
214 203 196 204 216 208 196 190 223 215 190 189 222 252 187 209 215 199 211 209 212 219 222 236 242 239 232 229 236 257 280 293 304 300 305 308 315 324 334 339 340 343 358 352
215 217 216 205 204 210 191 201 216 220 202 189 218 230 196 169 198 220 215 225 225 233 244 247 259 256 244 239 242 255 281 292 294 312 329 335 334 336 336 340 353 2 1 357
216 214 216 216 216 207 186 193 209 199 226 201 185 214 212 212 206 219 212 232 242 236 259 270 272 269 270 260 251 255 273 283 304 329 328 337 342 344 343 345 353 1 360 355
214 213 216 215 215 213 198 192 200 191 211 210 221 194 218 208 202 228 216 233 237 234 250 286 276 271 273 269 258 258 266 278 315 322 324 338 339 346 351 348 352 358 357 353
209 216 214 216 214 212 204 198 198 197 203 183 217 211 210 204 220 219 223 230 237 238 240 268 296 286 281 264 262 260 265 285 304 309 322 335 340 340 342 345 348 350 351 351
173 223 223 216 214 217 210 200 199 185 199 219 208 232 202 193 215 212 213 222 224 227 249 265 284 281 272 268 264 267 270 283 289 298 315 325 330 341 341 340 344 346 346 348